UAL1597 KCMH-KSFO

Flight info

Callsign UAL1597
Flight time N/A
Altitude 34000
Route PKACZ TARRY DQN VHP J80 SPI PWE/N0450F360 VOAXA Q136 RUMPS OAL INYOE DYAMD5
Aircraft A319/M-SDE3FGHIRWY/LB1

Departure

Time 2026-05-09 02:24
Airport John Glenn Columbus International Airport (KCMH)

Arrival

Time N/A
Airport San Francisco International Airport (KSFO)
Time Latitude Longitude Altitude Speed Heading
2026-05-09 01:51 39.99870 -82.88011 822 ft 0 kts 272°
2026-05-09 02:15 39.99870 -82.88006 821 ft 3 kts 272°
2026-05-09 02:16 39.99869 -82.87972 822 ft 4 kts 273°
2026-05-09 02:16 39.99866 -82.87938 822 ft 4 kts 296°
2026-05-09 02:16 39.99854 -82.87922 817 ft 0 kts
2026-05-09 02:21 39.99864 -82.87922 823 ft 4 kts
2026-05-09 02:21 39.99909 -82.87920 822 ft 9 kts 358°
2026-05-09 02:21 39.99973 -82.87945 821 ft 11 kts 346°
2026-05-09 02:22 40.00050 -82.87943 813 ft 6 kts
2026-05-09 02:22 40.00052 -82.87943 819 ft 0 kts
2026-05-09 02:23 40.00067 -82.87941 813 ft 9 kts
2026-05-09 02:23 40.00142 -82.87935 819 ft 10 kts
2026-05-09 02:23 40.00164 -82.87982 820 ft 8 kts 277°
2026-05-09 02:24 40.00177 -82.88227 822 ft 58 kts 274°
2026-05-09 02:24 40.00225 -82.89064 821 ft 127 kts 274°
2026-05-09 02:24 40.00307 -82.90441 985 ft 164 kts 278°
2026-05-09 02:24 40.00403 -82.92012 1688 ft 165 kts 275°
2026-05-09 02:25 40.00487 -82.93412 2344 ft 164 kts 273°
2026-05-09 02:25 40.00582 -82.94919 2818 ft 177 kts 273°
2026-05-09 02:25 40.00707 -82.96597 3047 ft 196 kts 273°
2026-05-09 02:25 40.00848 -82.98502 3214 ft 224 kts 273°
2026-05-09 02:26 40.01009 -83.00625 3595 ft 245 kts 272°
2026-05-09 02:26 40.01032 -83.02865 4348 ft 249 kts 267°
2026-05-09 02:26 40.01043 -83.05143 5133 ft 253 kts 267°
2026-05-09 02:26 40.01072 -83.07447 6013 ft 252 kts 267°
2026-05-09 02:27 40.01103 -83.09725 6883 ft 252 kts 267°
2026-05-09 02:27 40.01119 -83.12018 7696 ft 252 kts 267°
2026-05-09 02:27 40.01130 -83.14265 8576 ft 250 kts 268°
2026-05-09 02:27 40.01141 -83.16542 9331 ft 253 kts 269°
2026-05-09 02:28 40.01154 -83.18831 10111 ft 253 kts 269°
2026-05-09 02:28 40.01171 -83.21153 10591 ft 264 kts 270°
2026-05-09 02:28 40.01188 -83.23651 10725 ft 286 kts 270°
2026-05-09 02:28 40.01208 -83.26309 11066 ft 298 kts 270°
2026-05-09 02:29 40.01228 -83.29036 11633 ft 303 kts 270°
2026-05-09 02:29 40.01243 -83.31799 12243 ft 306 kts 270°
2026-05-09 02:29 40.01256 -83.34588 12861 ft 310 kts 270°
2026-05-09 02:29 40.01268 -83.37414 13469 ft 313 kts 271°
2026-05-09 02:30 40.01281 -83.40235 14035 ft 317 kts 271°
2026-05-09 02:30 40.01296 -83.43123 14593 ft 319 kts 271°
2026-05-09 02:30 40.01311 -83.46032 15168 ft 322 kts 271°
2026-05-09 02:30 40.01324 -83.48953 15746 ft 323 kts 270°
2026-05-09 02:31 40.01334 -83.51895 16329 ft 325 kts 270°
2026-05-09 02:31 40.01342 -83.54852 16910 ft 327 kts 270°
2026-05-09 02:31 40.01358 -83.57827 17476 ft 329 kts 272°
2026-05-09 02:31 40.01655 -83.60797 18040 ft 332 kts 278°
2026-05-09 02:32 40.02045 -83.63877 18562 ft 334 kts 277°
2026-05-09 02:32 40.02401 -83.66733 19070 ft 335 kts 277°
2026-05-09 02:32 40.02774 -83.69733 19609 ft 336 kts 277°
2026-05-09 02:32 40.03150 -83.72744 20151 ft 337 kts 277°
2026-05-09 02:33 40.03522 -83.75767 20682 ft 337 kts 277°
2026-05-09 02:33 40.03892 -83.78791 21213 ft 338 kts 277°
2026-05-09 02:33 40.04257 -83.81786 21722 ft 339 kts 277°
2026-05-09 02:33 40.04699 -83.85402 22313 ft 340 kts 277°
2026-05-09 02:34 40.05010 -83.87927 22724 ft 341 kts 277°
2026-05-09 02:34 40.05330 -83.90951 23194 ft 342 kts 272°
2026-05-09 02:34 40.05246 -83.94052 23631 ft 343 kts 265°
2026-05-09 02:34 40.04997 -83.97153 24020 ft 344 kts 265°
2026-05-09 02:35 40.04751 -84.00271 24412 ft 345 kts 265°
2026-05-09 02:35 40.04510 -84.03391 24779 ft 347 kts 265°
2026-05-09 02:35 40.04269 -84.06529 25146 ft 348 kts 265°
2026-05-09 02:35 40.04026 -84.09687 25511 ft 350 kts 265°
2026-05-09 02:36 40.03784 -84.12850 25872 ft 351 kts 265°
2026-05-09 02:36 40.03541 -84.15986 26226 ft 353 kts 265°
2026-05-09 02:36 40.03289 -84.19174 26586 ft 354 kts 264°
2026-05-09 02:36 40.03033 -84.22377 26940 ft 356 kts 264°
2026-05-09 02:37 40.02775 -84.25595 27283 ft 358 kts 264°
2026-05-09 02:37 40.02516 -84.28836 27629 ft 359 kts 264°
2026-05-09 02:37 40.02254 -84.32081 27961 ft 361 kts 264°
2026-05-09 02:37 40.01989 -84.35340 28294 ft 363 kts 264°
2026-05-09 02:38 40.01727 -84.38576 28607 ft 364 kts 264°
2026-05-09 02:38 40.01453 -84.41871 28923 ft 366 kts 264°
2026-05-09 02:38 40.01155 -84.45171 29221 ft 368 kts 263°
2026-05-09 02:38 40.00839 -84.48484 29531 ft 369 kts 263°
2026-05-09 02:39 40.00516 -84.51810 29832 ft 371 kts 263°
2026-05-09 02:39 40.00192 -84.55154 30104 ft 372 kts 263°
2026-05-09 02:39 39.99868 -84.58509 30362 ft 373 kts 263°
2026-05-09 02:39 39.99545 -84.61862 30673 ft 373 kts 263°
2026-05-09 02:40 39.99222 -84.65206 31071 ft 370 kts 263°
2026-05-09 02:40 39.98902 -84.68524 31476 ft 367 kts 263°
2026-05-09 02:40 39.98592 -84.71772 31892 ft 365 kts 263°
2026-05-09 02:40 39.98281 -84.75043 32308 ft 362 kts 263°
2026-05-09 02:41 39.97969 -84.78279 32717 ft 359 kts 263°
2026-05-09 02:41 39.97655 -84.81507 33137 ft 357 kts 263°
2026-05-09 02:41 39.97343 -84.84702 33533 ft 354 kts 263°
2026-05-09 02:41 39.97035 -84.87881 33869 ft 353 kts 263°
2026-05-09 02:42 39.96726 -84.91036 33923 ft 349 kts 263°
2026-05-09 02:42 39.96111 -84.97266 33923 ft 346 kts 263°
2026-05-09 02:43 39.95497 -85.03433 33909 ft 345 kts 263°
2026-05-09 02:43 39.94876 -85.09645 33913 ft 345 kts 262°
2026-05-09 02:44 39.94257 -85.15843 33921 ft 345 kts 262°
2026-05-09 02:44 39.93634 -85.22043 33922 ft 345 kts 262°
2026-05-09 02:45 39.93010 -85.28234 33922 ft 345 kts 262°
2026-05-09 02:45 39.92392 -85.34383 33919 ft 345 kts 262°
2026-05-09 02:46 39.91756 -85.40568 33916 ft 345 kts 262°
2026-05-09 02:46 39.91121 -85.46758 33911 ft 345 kts 262°
2026-05-09 02:47 39.90483 -85.52938 33904 ft 345 kts 262°
2026-05-09 02:47 39.89847 -85.59086 33899 ft 345 kts 262°
2026-05-09 02:48 39.89205 -85.65280 33888 ft 345 kts 262°
2026-05-09 02:48 39.88551 -85.71474 33897 ft 345 kts 262°
2026-05-09 02:49 39.87886 -85.77673 33899 ft 346 kts 262°
2026-05-09 02:49 39.87230 -85.83832 33898 ft 346 kts 262°
2026-05-09 02:50 39.86572 -85.90037 33899 ft 346 kts 262°
2026-05-09 02:50 39.85908 -85.96240 33899 ft 346 kts 262°
2026-05-09 02:51 39.85232 -86.02446 33892 ft 346 kts 262°
2026-05-09 02:51 39.84563 -86.08612 33890 ft 346 kts 262°
2026-05-09 02:52 39.83889 -86.14820 33892 ft 346 kts 262°
2026-05-09 02:52 39.83209 -86.21030 33894 ft 347 kts 262°
2026-05-09 02:53 39.82528 -86.27197 33894 ft 347 kts 262°
2026-05-09 02:53 39.81845 -86.33402 33893 ft 347 kts 262°
2026-05-09 02:54 39.81540 -86.39655 33896 ft 348 kts 269°
2026-05-09 02:54 39.81679 -86.45952 33894 ft 348 kts 269°
2026-05-09 02:55 39.81808 -86.52257 33892 ft 349 kts 269°
2026-05-09 02:55 39.81928 -86.58524 33892 ft 349 kts 269°
2026-05-09 02:56 39.82051 -86.64833 33892 ft 349 kts 269°
2026-05-09 02:56 39.82171 -86.71148 33887 ft 350 kts 269°
2026-05-09 02:57 39.82286 -86.77479 33879 ft 350 kts 269°
2026-05-09 02:57 39.82402 -86.83775 33874 ft 351 kts 269°
2026-05-09 02:58 39.82519 -86.90115 33876 ft 351 kts 268°
2026-05-09 02:58 39.82625 -86.96477 33875 ft 352 kts 268°
2026-05-09 02:59 39.82728 -87.02841 33873 ft 352 kts 268°
2026-05-09 02:59 39.82831 -87.09225 33872 ft 353 kts 268°
2026-05-09 03:00 39.82927 -87.15573 33874 ft 354 kts 268°
2026-05-09 03:00 39.83019 -87.21973 33868 ft 354 kts 268°
2026-05-09 03:01 39.83109 -87.28380 33866 ft 355 kts 268°
2026-05-09 03:01 39.83197 -87.34800 33868 ft 355 kts 268°
2026-05-09 03:02 39.83279 -87.41178 33871 ft 355 kts 268°
2026-05-09 03:02 39.83359 -87.47606 33874 ft 356 kts 268°
2026-05-09 03:03 39.83443 -87.54043 33877 ft 356 kts 268°
2026-05-09 03:03 39.83518 -87.60482 33884 ft 356 kts 268°
2026-05-09 03:04 39.83587 -87.66923 33880 ft 356 kts 267°
2026-05-09 03:04 39.83651 -87.73320 33881 ft 356 kts 267°
2026-05-09 03:05 39.83712 -87.79768 33888 ft 356 kts 267°
2026-05-09 03:05 39.83772 -87.86216 33886 ft 357 kts 267°
2026-05-09 03:06 39.83834 -87.92674 33882 ft 357 kts 267°
2026-05-09 03:06 39.83882 -87.99092 33876 ft 357 kts 267°
2026-05-09 03:07 39.83927 -88.05552 33869 ft 357 kts 267°
2026-05-09 03:07 39.83969 -88.12016 33866 ft 357 kts 267°
2026-05-09 03:08 39.84009 -88.18478 33863 ft 357 kts 267°
2026-05-09 03:08 39.84048 -88.24908 33858 ft 358 kts 267°
2026-05-09 03:09 39.84085 -88.31372 33863 ft 358 kts 267°
2026-05-09 03:09 39.84120 -88.37850 33859 ft 358 kts 267°
2026-05-09 03:10 39.84150 -88.44321 33861 ft 358 kts 266°
2026-05-09 03:10 39.84177 -88.50797 33860 ft 358 kts 266°
2026-05-09 03:11 39.84200 -88.57215 33872 ft 357 kts 266°
2026-05-09 03:11 39.84215 -88.63683 33873 ft 357 kts 266°
2026-05-09 03:12 39.84228 -88.70148 33875 ft 357 kts 266°
2026-05-09 03:12 39.84234 -88.76605 33876 ft 357 kts 266°
2026-05-09 03:13 39.84237 -88.86241 33880 ft 356 kts 266°
2026-05-09 03:13 39.84240 -88.92687 33881 ft 356 kts 266°
2026-05-09 03:14 39.84236 -88.99122 33878 ft 356 kts 266°
2026-05-09 03:14 39.84228 -89.05558 33874 ft 355 kts 266°
2026-05-09 03:15 39.84216 -89.11939 33872 ft 355 kts 266°
2026-05-09 03:15 39.84204 -89.18365 33870 ft 355 kts 266°
2026-05-09 03:16 39.84188 -89.24784 33865 ft 355 kts 265°
2026-05-09 03:16 39.84169 -89.31156 33862 ft 355 kts 265°
2026-05-09 03:17 39.84146 -89.37572 33865 ft 355 kts 265°
2026-05-09 03:17 39.84116 -89.43988 33866 ft 355 kts 265°
2026-05-09 03:18 39.84082 -89.50407 33870 ft 355 kts 265°
2026-05-09 03:18 39.84046 -89.56824 33874 ft 355 kts 265°
2026-05-09 03:19 39.84006 -89.63193 33867 ft 355 kts 265°
2026-05-09 03:19 39.84121 -89.69617 33866 ft 358 kts 270°
2026-05-09 03:20 39.84656 -89.76058 33863 ft 358 kts 270°
2026-05-09 03:20 39.85198 -89.82508 33860 ft 358 kts 270°
2026-05-09 03:21 39.85727 -89.88916 33854 ft 359 kts 270°
2026-05-09 03:21 39.86258 -89.95364 33852 ft 359 kts 270°
2026-05-09 03:22 39.86781 -90.01827 33858 ft 359 kts 270°
2026-05-09 03:22 39.87300 -90.08285 33859 ft 359 kts 270°
2026-05-09 03:23 39.87812 -90.14710 33863 ft 359 kts 270°
2026-05-09 03:23 39.88325 -90.21179 33862 ft 360 kts 270°
2026-05-09 03:24 39.88836 -90.27666 33862 ft 360 kts 270°
2026-05-09 03:24 39.89341 -90.34156 33860 ft 361 kts 270°
2026-05-09 03:25 39.89849 -90.40659 33855 ft 361 kts 270°
2026-05-09 03:25 39.90352 -90.47128 33849 ft 362 kts 270°
2026-05-09 03:26 39.90842 -90.53658 33840 ft 363 kts 270°
2026-05-09 03:26 39.91333 -90.60200 33838 ft 364 kts 270°
2026-05-09 03:27 39.91825 -90.66764 33839 ft 365 kts 270°
2026-05-09 03:27 39.92315 -90.73307 33841 ft 366 kts 270°
2026-05-09 03:28 39.92808 -90.79918 33837 ft 367 kts 270°
2026-05-09 03:28 39.93302 -90.86551 33832 ft 368 kts 271°
2026-05-09 03:29 39.93783 -90.93162 33833 ft 370 kts 271°
2026-05-09 03:29 39.94261 -90.99837 33836 ft 371 kts 271°
2026-05-09 03:30 39.94739 -91.06552 33839 ft 373 kts 271°
2026-05-09 03:30 39.95219 -91.13291 33841 ft 375 kts 272°
2026-05-09 03:31 39.95702 -91.20074 33837 ft 377 kts 272°
2026-05-09 03:31 39.96174 -91.26846 33841 ft 379 kts 272°
2026-05-09 03:32 39.96644 -91.33703 33835 ft 381 kts 273°
2026-05-09 03:32 39.97129 -91.40592 33832 ft 383 kts 274°
2026-05-09 03:33 39.97604 -91.47517 33829 ft 385 kts 274°
2026-05-09 03:33 39.98075 -91.54434 33832 ft 386 kts 274°
2026-05-09 03:34 39.98544 -91.61422 33829 ft 388 kts 275°
2026-05-09 03:34 39.99007 -91.68442 33826 ft 389 kts 275°
2026-05-09 03:35 39.99472 -91.75498 33820 ft 391 kts 275°
2026-05-09 03:35 39.99932 -91.82568 33824 ft 392 kts 276°
2026-05-09 03:36 40.00385 -91.89605 33822 ft 392 kts 276°
2026-05-09 03:36 40.00838 -91.96705 33827 ft 393 kts 276°
2026-05-09 03:37 40.01296 -92.03815 33830 ft 394 kts 276°
2026-05-09 03:37 40.01743 -92.10940 33835 ft 394 kts 277°
2026-05-09 03:38 40.02178 -92.18021 33840 ft 394 kts 277°
2026-05-09 03:38 40.02611 -92.25151 33843 ft 395 kts 277°
2026-05-09 03:39 40.03047 -92.32291 33848 ft 395 kts 277°
2026-05-09 03:39 40.03480 -92.39436 33854 ft 395 kts 278°
2026-05-09 03:40 40.03908 -92.46535 33861 ft 395 kts 278°
2026-05-09 03:40 40.04329 -92.53681 33859 ft 395 kts 278°
2026-05-09 03:41 40.04742 -92.60826 33860 ft 395 kts 279°
2026-05-09 03:41 40.05152 -92.67977 33859 ft 395 kts 279°
2026-05-09 03:42 40.05564 -92.75126 33850 ft 395 kts 279°
2026-05-09 03:42 40.05972 -92.82233 33847 ft 395 kts 280°
2026-05-09 03:43 40.06373 -92.89386 33842 ft 395 kts 280°
2026-05-09 03:43 40.06767 -92.96545 33839 ft 396 kts 280°
2026-05-09 03:44 40.07156 -93.03714 33824 ft 396 kts 281°
2026-05-09 03:44 40.07538 -93.10879 33824 ft 396 kts 281°
2026-05-09 03:45 40.07919 -93.17991 33826 ft 395 kts 281°
2026-05-09 03:45 40.08300 -93.25153 33823 ft 395 kts 281°
2026-05-09 03:46 40.08670 -93.32322 33822 ft 396 kts 282°
2026-05-09 03:46 40.09039 -93.39482 33818 ft 395 kts 282°
2026-05-09 03:47 40.09405 -93.46597 33822 ft 395 kts 282°
2026-05-09 03:47 40.09769 -93.53760 33824 ft 395 kts 282°
2026-05-09 03:48 40.10125 -93.60906 33822 ft 395 kts 282°
2026-05-09 03:48 40.10470 -93.68058 33823 ft 394 kts 282°
2026-05-09 03:49 40.10809 -93.75158 33825 ft 394 kts 282°
2026-05-09 03:49 40.11154 -93.82291 33826 ft 393 kts 282°
2026-05-09 03:50 40.11493 -93.89421 33823 ft 393 kts 282°
2026-05-09 03:50 40.11827 -93.96543 33821 ft 393 kts 282°
2026-05-09 03:51 40.12153 -94.03616 33821 ft 393 kts 282°
2026-05-09 03:51 40.12466 -94.10733 33818 ft 392 kts 282°
2026-05-09 03:52 40.12787 -94.17849 33827 ft 392 kts 282°
2026-05-09 03:52 40.13102 -94.24954 33831 ft 392 kts 282°
2026-05-09 03:53 40.13414 -94.32055 33826 ft 391 kts 281°
2026-05-09 03:53 40.13717 -94.39098 33822 ft 391 kts 281°
2026-05-09 03:54 40.14018 -94.46187 33816 ft 390 kts 281°
2026-05-09 03:54 40.14314 -94.53267 33818 ft 390 kts 281°
2026-05-09 03:55 40.14602 -94.60347 33815 ft 390 kts 281°
2026-05-09 03:55 40.14890 -94.67377 33816 ft 390 kts 281°
2026-05-09 03:56 40.15177 -94.74455 33815 ft 390 kts 281°
2026-05-09 03:56 40.15452 -94.81527 33815 ft 390 kts 280°
2026-05-09 03:57 40.15720 -94.88611 33814 ft 390 kts 280°
2026-05-09 03:57 40.15991 -94.95681 33815 ft 390 kts 280°
2026-05-09 03:58 40.16254 -95.02713 33813 ft 390 kts 280°
2026-05-09 03:58 40.16516 -95.09797 33808 ft 390 kts 280°
2026-05-09 03:59 40.16776 -95.16876 33803 ft 390 kts 279°
2026-05-09 03:59 40.17019 -95.23913 33796 ft 390 kts 279°
2026-05-09 04:00 40.17259 -95.31023 33803 ft 390 kts 279°
2026-05-09 04:00 40.17509 -95.38092 33816 ft 391 kts 279°
2026-05-09 04:01 40.17755 -95.45190 33818 ft 391 kts 279°
2026-05-09 04:01 40.17990 -95.52302 33827 ft 391 kts 279°
2026-05-09 04:02 40.18219 -95.59368 33829 ft 392 kts 279°
2026-05-09 04:02 40.18441 -95.66484 33829 ft 392 kts 279°
2026-05-09 04:03 40.18668 -95.73605 33825 ft 392 kts 278°
2026-05-09 04:03 40.18888 -95.80729 33813 ft 392 kts 278°
2026-05-09 04:04 40.19101 -95.87802 33812 ft 392 kts 278°
2026-05-09 04:04 40.19313 -95.94923 33817 ft 392 kts 278°
2026-05-09 04:05 40.19516 -96.02043 33803 ft 392 kts 278°
2026-05-09 04:05 40.19713 -96.09155 33808 ft 391 kts 278°
2026-05-09 04:06 40.19903 -96.16219 33806 ft 391 kts 278°
2026-05-09 04:06 40.20060 -96.23334 33814 ft 392 kts 277°
2026-05-09 04:07 40.20096 -96.30460 33812 ft 392 kts 276°
2026-05-09 04:07 40.20098 -96.37587 33826 ft 391 kts 276°
2026-05-09 04:08 40.20110 -96.44703 33829 ft 391 kts 276°
2026-05-09 04:08 40.20131 -96.51767 33835 ft 391 kts 276°
2026-05-09 04:09 40.20142 -96.58881 33842 ft 391 kts 276°
2026-05-09 04:09 40.20145 -96.65996 33847 ft 391 kts 276°
2026-05-09 04:10 40.20148 -96.73109 33845 ft 391 kts 276°
2026-05-09 04:10 40.20149 -96.80176 33847 ft 391 kts 276°
2026-05-09 04:11 40.20144 -96.87291 33842 ft 391 kts 276°
2026-05-09 04:11 40.20140 -96.94412 33835 ft 392 kts 276°
2026-05-09 04:12 40.20130 -97.01538 33827 ft 392 kts 276°
2026-05-09 04:12 40.20109 -97.08667 33819 ft 392 kts 276°
2026-05-09 04:13 40.20087 -97.15800 33812 ft 392 kts 276°
2026-05-09 04:13 40.20059 -97.22885 33828 ft 392 kts 276°
2026-05-09 04:14 40.20023 -97.30026 33844 ft 393 kts 276°
2026-05-09 04:14 40.19985 -97.37165 33860 ft 393 kts 276°
2026-05-09 04:15 40.19951 -97.44308 33866 ft 393 kts 276°
2026-05-09 04:15 40.19906 -97.51448 33876 ft 393 kts 276°
2026-05-09 04:16 40.19862 -97.58594 33877 ft 393 kts 276°
2026-05-09 04:16 40.19807 -97.65695 33878 ft 393 kts 276°
2026-05-09 04:17 40.19747 -97.72840 33872 ft 393 kts 276°
2026-05-09 04:17 40.19684 -97.79987 33865 ft 393 kts 276°
2026-05-09 04:18 40.19618 -97.87128 33857 ft 393 kts 276°
2026-05-09 04:18 40.19551 -97.94268 33849 ft 393 kts 275°
2026-05-09 04:19 40.19474 -98.01356 33842 ft 392 kts 276°
2026-05-09 04:19 40.19396 -98.08494 33831 ft 392 kts 275°
2026-05-09 04:20 40.19317 -98.15634 33835 ft 392 kts 275°
2026-05-09 04:20 40.19225 -98.22765 33845 ft 392 kts 275°
2026-05-09 04:21 40.19126 -98.29898 33840 ft 392 kts 275°
2026-05-09 04:22 40.18979 -98.40551 33844 ft 392 kts 275°
2026-05-09 04:22 40.18876 -98.47689 33847 ft 392 kts 275°
2026-05-09 04:23 40.18769 -98.54820 33851 ft 392 kts 275°
2026-05-09 04:23 40.18675 -98.60752 33855 ft 392 kts 275°
2026-05-09 04:24 40.18564 -98.67885 33857 ft 392 kts 275°
2026-05-09 04:24 40.18447 -98.75012 33856 ft 392 kts 275°
2026-05-09 04:25 40.18320 -98.82092 33861 ft 392 kts 274°
2026-05-09 04:25 40.18186 -98.89226 33859 ft 392 kts 274°
2026-05-09 04:26 40.18047 -98.96345 33862 ft 392 kts 274°
2026-05-09 04:26 40.17915 -99.03466 33864 ft 392 kts 274°
2026-05-09 04:27 40.17774 -99.10588 33878 ft 391 kts 274°
2026-05-09 04:27 40.17626 -99.17650 33881 ft 391 kts 274°
2026-05-09 04:28 40.17473 -99.24755 33893 ft 391 kts 274°
2026-05-09 04:28 40.17315 -99.31861 33888 ft 391 kts 273°
2026-05-09 04:29 40.17154 -99.38955 33892 ft 390 kts 273°
2026-05-09 04:29 40.16991 -99.46048 33889 ft 390 kts 273°
2026-05-09 04:30 40.16831 -99.53128 33889 ft 390 kts 273°
2026-05-09 04:30 40.16665 -99.60162 33885 ft 390 kts 273°
2026-05-09 04:31 40.16491 -99.67243 33885 ft 389 kts 273°
2026-05-09 04:31 40.16307 -99.74313 33893 ft 389 kts 272°
2026-05-09 04:32 40.16116 -99.81384 33893 ft 389 kts 272°
2026-05-09 04:32 40.15927 -99.88458 33899 ft 389 kts 272°
2026-05-09 04:33 40.15737 -99.95522 33907 ft 389 kts 272°
2026-05-09 04:33 40.15542 -100.02549 33909 ft 389 kts 272°
2026-05-09 04:34 40.15337 -100.09621 33913 ft 389 kts 272°
2026-05-09 04:34 40.15136 -100.16694 33911 ft 389 kts 272°
2026-05-09 04:35 40.14930 -100.23774 33907 ft 390 kts 272°
2026-05-09 04:35 40.14713 -100.30845 33905 ft 390 kts 272°
2026-05-09 04:36 40.14492 -100.37885 33922 ft 390 kts 272°
2026-05-09 04:36 40.14267 -100.44965 33928 ft 390 kts 272°
2026-05-09 04:37 40.14042 -100.52054 33938 ft 390 kts 271°
2026-05-09 04:37 40.13809 -100.59143 33930 ft 391 kts 271°
2026-05-09 04:38 40.13574 -100.66190 33936 ft 391 kts 271°
2026-05-09 04:38 40.13335 -100.73289 33928 ft 391 kts 271°
2026-05-09 04:39 40.13093 -100.80386 33924 ft 391 kts 271°
2026-05-09 04:39 40.12839 -100.87487 33912 ft 391 kts 271°
2026-05-09 04:40 40.12584 -100.94594 33913 ft 392 kts 271°
2026-05-09 04:40 40.12331 -101.01651 33933 ft 392 kts 271°
2026-05-09 04:41 40.12070 -101.08763 33938 ft 392 kts 271°
2026-05-09 04:41 40.11795 -101.15877 33930 ft 392 kts 271°
2026-05-09 04:42 40.11521 -101.22997 33927 ft 392 kts 271°
2026-05-09 04:42 40.11245 -101.30064 33916 ft 393 kts 270°
2026-05-09 04:43 40.10964 -101.37186 33910 ft 393 kts 270°
2026-05-09 04:43 40.10678 -101.44306 33911 ft 393 kts 270°
2026-05-09 04:44 40.10390 -101.51434 33910 ft 393 kts 270°
2026-05-09 04:44 40.10096 -101.58514 33912 ft 393 kts 270°
2026-05-09 04:45 40.09798 -101.65638 33916 ft 393 kts 270°
2026-05-09 04:45 40.09497 -101.72763 33923 ft 393 kts 270°
2026-05-09 04:46 40.09186 -101.79895 33925 ft 393 kts 270°
2026-05-09 04:46 40.08876 -101.86971 33925 ft 393 kts 270°
2026-05-09 04:47 40.08557 -101.94097 33926 ft 393 kts 270°
2026-05-09 04:47 40.08239 -102.01217 33925 ft 393 kts 270°
2026-05-09 04:48 40.07914 -102.08339 33924 ft 393 kts 269°
2026-05-09 04:48 40.07581 -102.15459 33920 ft 393 kts 269°
2026-05-09 04:49 40.07247 -102.22579 33927 ft 393 kts 269°
2026-05-09 04:49 40.06913 -102.29650 33923 ft 393 kts 269°
2026-05-09 04:50 40.06571 -102.36756 33926 ft 392 kts 269°
2026-05-09 04:50 40.06226 -102.43869 33923 ft 392 kts 269°
2026-05-09 04:51 40.05876 -102.50975 33930 ft 392 kts 269°
2026-05-09 04:51 40.05526 -102.58033 33931 ft 392 kts 269°